Location: Hilton Head Island
(32.2163°N, 80.7526°W)
Time: 09:05:33
(UTC-04:00)

Vanguard 2 Rocket - Pass Details

Date: 25 February 2026
Orbit: 553 x 3286 km, 32.9° (Epoch: 16 March)

Event Time Altitude Azimuth Distance (km) Brightness Sun altitude
Rises 13:49:45 0° 276° (W) 7,249 11.7 45.3°
Reaches altitude 10° 13:54:41 10° 276° (W) 6,226 11.5 44.8°
Maximum altitude 14:14:34 89° 192° (SSW) 2,693 10.1 42.7°
Drops below altitude 10° 14:27:26 10° 101° (E) 4,279 10.2 41.1°
Sets 14:30:09 0° 101° (ESE) 4,975 10.5 40.7°
